Regional Weather Roundup
Issued by NWS

Home | Current Version | Previous Version | Text Only | Print | Product List | Glossary On
Versions: 1 2 3 4 5 6 7 8 9 10 11 12 13 14 15 16 17 18 19 20 21 22 23 24 25 26 27 28 29 30 31 32 33 34 35 36 37 38 39 40 41 42 43 44 45 46 47 48 49 50
000
ASUS43 KMPX 290301
RWRMN
WEATHER ROUNDUP FOR MINNESOTA
NATIONAL WEATHER SERVICE TWIN CITIES/CHANHASSEN MN
1000 PM CDT THU APR 28 2016


NOTE: "FAIR" INDICATES FEW OR NO CLOUDS BELOW 12,000 FEET WITH NO
SIGNIFICANT WEATHER AND/OR OBSTRUCTIONS TO VISIBILITY. N/A MEANS
CURRENT SKY AND/OR WEATHER CONDITIONS ARE NOT AVAILABLE.

MNZ060>063-068>070-290400-
   Twin Cities Metro

CITY           SKY/WX    TMP DP  RH WIND       PRES   REMARKS
TWIN CITIES    LGT RAIN  41  38  89 E5        30.13R
ST PAUL        LGT RAIN  41  38  89 E3        30.14R
CRYSTAL        LGT RAIN  42  39  89 CALM      30.12R
BLAINE         LGT RAIN  43  43 100 CALM      30.13R
EDEN PRAIRIE   LGT RAIN  40  36  86 CALM      30.12R
SOUTH ST PAUL  LGT RAIN  40  39  96 E5        30.13R
LAKE ELMO      LGT RAIN  41  39  93 CALM      30.13R
$$
MNZ001>005-007-008-013>017-022>024-027-028-290400-
   Northwest Minnesota

CITY           SKY/WX    TMP DP  RH WIND       PRES   REMARKS
BEMIDJI        CLOUDY    44  28  52 N3        30.12S
HALLOCK        MOCLDY    46  21  36 E3        30.17R
ROSEAU         MOCLDY    41  34  75 E3        30.17S
WARROAD        CLOUDY    45  28  53 NE7       30.18R
THIEF RVR FALL CLEAR     45  23  42 NE7       30.16R
CROOKSTON      CLEAR     46  27  46 E6        30.16R
FOSSTON        CLOUDY    45  30  57 NE3       30.14R
DETROIT LAKES  CLOUDY    50  28  43 CALM      30.12R
MOORHEAD       PTCLDY    52  28  40 NE6       30.13R
PARK RAPIDS    PTCLDY    48  26  42 E6        30.11R
MAHNOMEN       FAIR      44  30  58 NE7       30.12R
$$
MNZ006-009>011-018-025>026-290400-
   North Central Minnesota

CITY           SKY/WX    TMP DP  RH WIND       PRES   REMARKS
BAUDETTE       PTCLDY    46  27  47 NE8       30.16R
FLAG ISLAND    CLOUDY    46  28  49 NE6       30.17R
INTL FALLS     PTCLDY    46  29  51 N9        30.15R
WASKISH        CLEAR     45  30  57 NE3       30.14R
BIG FORK       CLEAR     37  27  65 CALM      30.13R
LONGVILLE      PTCLDY    41  30  65 CALM      30.12R
GRAND RAPIDS   CLOUDY    45  19  36 SE6       30.14R
CRANE LAKE     PTCLDY    36  30  80 CALM      30.15S
ORR            PTCLDY    39  27  60 CALM      30.11R
COOK           PTCLDY    43  30  61 CALM      30.13R
WALKER         FAIR      47  29  50 NE3       30.11R
$$
MNZ012-019>021-037-290400-
   Northeast Minnesota

CITY           SKY/WX    TMP DP  RH WIND       PRES   REMARKS
DULUTH         PTCLDY    37  26  64 NE7       30.13R
ELY            PTCLDY    41  27  56 SE5       30.13R
HIBBING        CLOUDY    39  25  57 S3        30.12R
EVELETH        CLEAR     39  27  60 CALM      30.15R
DULUTH HARBOR  PTCLDY    37  34  87 NE13      30.16R
TWO HARBORS    PTCLDY    39  28  65 NE5       30.13R
SILVER BAY     CLOUDY    37  27  65 N3        30.13S
GRAND MARAIS     N/A     32  27  81 CALM      30.15F
G MARAIS ARPRT CLEAR     34  23  64 N6        30.13F WCI  29
$$
MNZ029>031-032-039>041-046>048-054>057-064-290400-
   West Central Minnesota

CITY           SKY/WX    TMP DP  RH WIND       PRES   REMARKS
FERGUS FALLS   CLOUDY    45  37  76 SW6       30.12R
WHEATON        CLOUDY    45  41  87 S5        30.16R
MORRIS         CLOUDY    43  39  87 S5        30.13R
ALEXANDRIA     CLOUDY    42  37  82 CALM      30.13R
ELBOW LAKE     CLOUDY    42  38  87 S8        30.13R
WADENA         CLOUDY    45  36  70 S6        30.12R
GLENWOOD       CLOUDY    39  37  93 CALM      30.14R
APPLETON       CLOUDY    43  37  81 CALM      30.14R
BENSON         CLOUDY    41  37  87 S6        30.13R
ORTONVILLE     CLOUDY    41  37  87 CALM      30.14R
MADISON        CLOUDY    41  39  93 S5        30.14R
WILLMAR        RAIN      41  39  93 SE6       30.15R
$$
MNZ033>034-036-042>043-049>051-058-059-290400-
   Central Minnesota

CITY           SKY/WX    TMP DP  RH WIND       PRES   REMARKS
ST CLOUD       CLOUDY    41  39  93 CALM      30.12R
SAUK CENTRE    CLOUDY    39  38  94 CALM      30.13R
PAYNESVILLE    LGT RAIN  40  40 100 SE7       30.13R
AITKIN         CLOUDY    45  19  36 E6        30.12R
PINE RIVER     CLOUDY    43  28  56 CALM      30.15R
BRAINERD       CLOUDY    46  24  42 CALM      30.12R
STAPLES        CLOUDY    45  36  70 CALM      30.12R
LONG PRAIRIE   CLOUDY    41  37  87 CALM      30.12R
LITTLE FALLS   CLOUDY    41  36  81 CALM      30.13R
LITCHFIELD     DRIZZLE   39  39 100 E3        30.14R
BUFFALO        RAIN      40  37  91 CALM      30.14R
MAPLE LAKE     DRIZZLE   41  40  95 CALM      30.13R
HUTCHINSON     RAIN      38  37  95 E5        30.15R
$$
MNZ037-044-045-052-053-290400-
   East Central Minnesota

CITY           SKY/WX    TMP DP  RH WIND       PRES   REMARKS
PRINCETON      DRIZZLE   43  39  87 CALM      30.12S
MORA           CLOUDY    43  27  52 CALM      30.14R
CAMBRIDGE      LGT RAIN  43  36  75 CALM      30.11R
RUSH CITY      CLOUDY    43  32  65 CALM      30.12R
MOOSE LAKE     CLOUDY    37  28  70 NE3       30.12R
HINCKLEY       MOCLDY    43  30  61 N6        30.12R
CLOQUET        CLOUDY    37  25  60 CALM      30.13R
MCGREGOR       CLOUDY    41  28  60 E6        30.13S
$$
MNZ071>073-080-081-089-090-097-098-290400-
   Southwest Minnesota

CITY           SKY/WX    TMP DP  RH WIND       PRES   REMARKS
MONTEVIDEO     DRIZZLE   39  39 100 S6        30.16R
GRANITE FALLS  LGT RAIN  42  39  89 NE6       30.15S
CANBY          CLOUDY    42  41  97 CALM      30.15R
MARSHALL       CLOUDY    40  37  89 E9        30.14R
REDWOOD FALLS  CLOUDY    40  36  86 NE6       30.13R
OLIVIA         LGT RAIN  39  36  87 E6        30.13R
PIPESTONE      DRIZZLE   37  37 100 NE7       30.09S
WINDOM         CLOUDY    39  37  93 NE6       30.10R FOG
WORTHINGTON    CLOUDY    39  36  89 N9        30.10R
JACKSON        CLOUDY    39  36  87 N9        30.09S
TRACY          CLOUDY    40  39  96 NE7       30.13R
SLAYTON        DRIZZLE   38  38 100 N5        30.11R
$$
MNZ065>067-074>077-082>085-091>093-290400-
   South Central Minnesota

CITY           SKY/WX    TMP DP  RH WIND       PRES   REMARKS
MANKATO        CLOUDY    41  36  81 NE13      30.11R
NEW ULM        CLOUDY    39  37  93 NE9       30.12R
ST JAMES       CLOUDY    36  34  93 NE7       30.12R
FAIRMONT       CLOUDY    39  30  70 NE9       30.08S
GLENCOE        DRIZZLE   37  37  98 CALM      30.14R
OWATONNA       LGT RAIN  39  36  87 NE8       30.10R
WASECA         CLOUDY    39  37  93 NE8       30.11R FOG
$$
MNZ078>079-086>088-094>096-290400-
   Southeast Minnesota

CITY           SKY/WX    TMP DP  RH WIND       PRES   REMARKS
ROCHESTER      LGT RAIN  39  39 100 NE9       30.08R FOG
RED WING       LGT RAIN  37  36  93 E9        30.12R
STANTON        LGT RAIN  39  35  87 NE12      30.11R
DODGE CENTER   CLOUDY    37  37 100 NE10      30.08R FOG
WINONA         CLOUDY    41  36  81 E8        30.11R
AUSTIN         LGT RAIN  39  37  93 CALM      30.08R
PRESTON        CLOUDY    39  37  93 NE5       30.07R FOG
$$
ABBREVIATIONS USED IN REMARKS
   TC - TEMPERATURES IN CELSIUS
  WCI - WIND CHILL INDEX
   HX - HEAT INDEX
  VSB - VISIBILITY
$$




USA.gov is the U.S. government's official web portal to all federal, state and local government web resources and services.